Regional Weather Roundup
Issued by NWS

Home | Current Version | Previous Version | Text Only | Print | Product List | Glossary Off
Versions: 1 2 3 4 5 6 7 8 9 10 11 12 13 14 15 16 17 18 19 20 21 22 23 24 25 26 27 28 29 30 31 32 33 34 35 36 37 38 39 40 41 42 43 44 45 46 47 48 49 50

000
ASUS43 KMKX 300111
RWRWI

WISCONSIN REGIONAL WEATHER ROUNDUP
NATIONAL WEATHER SERVICE MILWAUKEE/SULLIVAN WI
800 PM CDT SAT AUG 29 2015

NOTE: "FAIR" INDICATES FEW OR NO CLOUDS BELOW 12,000 FEET WITH NO
SIGNIFICANT WEATHER AND/OR OBSTRUCTIONS TO VISIBILITY.

WIZ001-002-006>008-014>016-023>028-300200-
NORTHWEST WISCONSIN

CITY           SKY/WX    TMP DP  RH WIND       PRES   REMARKS
SUPERIOR ARPT  PTCLDY    70  64  83 SW6       29.96F
ASHLAND        MOCLDY    67  65  93 S6        29.99S
HAYWARD        MOCLDY    67  62  84 S5        30.02F
SIREN          PTCLDY    67  61  79 S5        30.02S
CUMBERLAND     PTCLDY    63  61  94 S3        30.03S
RICE LAKE      PTCLDY    66  62  86 S5        30.04F
CHETEK         PTCLDY   N/A N/A N/A S3        30.03F
LADYSMITH      MOCLDY    65  62  87 S3        30.06R
EAU CLAIRE     PTCLDY    65  62  90 CALM      30.03S
MENOMONIE      PTCLDY    65  63  91 CALM      30.03F
NEW RICHMOND   PTCLDY    66  63  90 CALM      30.02F
OSCEOLA        PTCLDY    65  65  98 S3        30.04S
$$

WIZ003>005-009-010-017-018-300200-
NORTH CENTRAL WISCONSIN

CITY           SKY/WX    TMP DP  RH WIND       PRES   REMARKS
MANITOWISH WTR PTCLDY    63  63 100 CALM      30.03S
ARBOR VITAE    CLEAR     66  62  85 S3        30.04S
WOODRUFF       CLEAR     66  62  85 S3        30.04S
RHINELANDER    CLEAR     64  59  83 CALM      30.06R
EAGLE RIVER    CLEAR     65  58  78 SW3       30.04R
LAND O LAKES   CLEAR     66  60  81 CALM      30.04S
PHILLIPS       PTCLDY    67  62  84 SW5       30.04R
TOMAHAWK       CLEAR     62  59  91 CALM      30.06R
MEDFORD        PTCLDY    60  59  96 S5        30.06S
MERRILL        CLEAR     64  61  91 CALM      30.06S
$$

WIZ029-030-035-036-043>047-300200-
CENTRAL WISCONSIN

CITY           SKY/WX    TMP DP  RH WIND       PRES   REMARKS
WAUSAU         CLEAR     63  60  90 SW5       30.04F
MOSINEE        CLOUDY    63  61  94 SW3       30.07S
MARSHFIELD     CLOUDY    65  58  78 CALM      30.06S
STEVENS POINT  CLOUDY    62  58  87 CALM      30.07R
WAUPACA        CLOUDY    67  64  88 NW6       30.05R
WAUTOMA        CLOUDY    67  64  90 CALM      30.06R
WISC RAPIDS    CLOUDY    66  59  78 NE5       30.07R
CAMP DOUGLAS   CLOUDY    66  66 100 CALM      30.05R
$$

WIZ011>013-019>022-031-037>040-048>050-300200-
NORTHEAST WISCONSIN

CITY           SKY/WX    TMP DP  RH WIND       PRES   REMARKS
ANTIGO         CLEAR     59  58  97 SW3       30.07R
SHAWANO        CLEAR     65  62  90 W5        30.05R
OCONTO         CLEAR     62  62 100 CALM      30.04R
STURGEON BAY   CLEAR     63  57  82 S7        30.06S
GREEN BAY      CLEAR     64  61  90 CALM      30.04R
MANITOWOC      CLEAR     59  58  96 MISG      30.05S FOG
APPLETON       CLOUDY    66  61  82 VRB5      30.03R
CLINTONVILLE   CLOUDY    64  61  88 NW5       30.05R
OSHKOSH        CLOUDY    67  62  84 CALM      30.04R
$$

WIZ032>034-041-042-053>061-300200-
SOUTHWEST WISCONSIN

CITY           SKY/WX    TMP DP  RH WIND       PRES   REMARKS
LA CROSSE      CLOUDY    69  60  73 SE5       30.04R
SPARTA         CLOUDY    67  59  76 CALM      30.06S
VIROQUA          N/A     65  64  96 E3        30.06R
BOSCOBEL       CLOUDY    69  65  86 CALM      30.04R
PRAIRIE DU CHI CLOUDY    68  61  79 CALM      30.04S
PLATTEVILLE    CLOUDY    67  65  93 N5        30.04R
$$

WIZ056-057-062-063-064-067-068-300200-
SOUTH CENTRAL WISCONSIN

CITY           SKY/WX    TMP DP  RH WIND       PRES   REMARKS
REEDSBURG      CLOUDY    66  63  87 N3        30.04S
BARABOO/DELLS  CLOUDY    66  61  84 CALM      30.05R
LONE ROCK      CLOUDY    68  63  84 N5        30.05R
MINERAL POINT  CLOUDY    68  64  88 CALM      30.05R
MADISON        CLOUDY    66  62  87 CALM      30.04R
MIDDLETON      CLOUDY    67  65  96 CALM      30.05R
WATERTOWN      CLOUDY    64  64 100 E6        30.04R
MONROE         CLOUDY    64  63  94 NE5       30.05R
JANESVILLE     CLOUDY    66  64  94 CALM      30.03R FOG
$$

WIZ051-052-058>065-066-070>072-300200-
SOUTHEAST WISCONSIN

CITY           SKY/WX    TMP DP  RH WIND       PRES   REMARKS
MILWAUKEE      DRZL/FOG  63  61  93 N9        30.04R VSB 1/2
WAUKESHA       CLOUDY    61  61 100 NE3       30.06R FOG
MILWAUKEE/TIMM CLOUDY    63  59  88 N5        30.05S FOG
RACINE         FOG       61  59  93 N7        30.05R VSB 3/4
BURLINGTON     CLOUDY    62  61  97 N3        30.04R FOG
KENOSHA        CLOUDY    64  62  93 N6        30.03R FOG
FOND DU LAC    CLOUDY    67  62  84 CALM      30.05R
SHEBOYGAN      CLOUDY    64  61  90 CALM      30.05R
WEST BEND      CLOUDY    63  59  88 CALM      30.05S
JUNEAU         CLOUDY    64  62  93 E3        30.06R
$$

LSZ147-162-300200-
LAKE SUPERIOR

STATION/POSITION TIME  TEMP    WIND        PRES    WAVE
                       AIR SEA DIR/SP/G            HT/PER
                 (UTC) (F)     (DEG/KT/KT) (MB)    (FT/S)
W MID LAKE BUOY  0050   59 55  210/  8/  8 1014.6S   1/ 4
DEVILS ISLAND    0100   67     210/  8/  9 1014.8R
PORT WING        0000   72     190/  4/  5 1014.9
SAXON HARBOR     0040   68        CALM     1014.9R
$$

LMZ867-665-643>646-300200-
LAKE MICHIGAN

STATION/POSITION TIME  TEMP    WIND        PRES    WAVE
                       AIR SEA DIR/SP/G            HT/PER
                 (UTC) (F)     (DEG/KT/KT) (MB)    (FT/S)
CHAMBERS ISLAND  0000   66     160/  2/  6 1016.6F
S GREEN BAY BUOY 0100   64 63  120/  4/  6 1018.4
N MID LAKE BUOY  0050   64 65  210/  8/  8 1016.7F   1
NORTHPORT PIER   0100   63     180/  1/ 13 1016.9R
SISTER BAY       0019   66     160/  6/  7   N/A
ALGOMA LAKESHORE 0014             CALM       N/A
SHEBOYGAN LAKESH 0100   59     170/  2/  3 1017.8R
PORT WASHINGTON  0000   58      40/  3/  3 1017.9
ATWATER BUOY     0100   52 49  350/  8/ 10 1018.7R
MILWAUKEE LAKESH 0000   61     360/  7/  8   N/A
S MID LAKE BUOY  0050   68 68  140/  4/  6 1016.1R   1/ 3
KENOSHA   LAKESH 0100   63     360/  7/  8 1016.6R
$$

TC  - TEMPERATURE IN CELSIUS
VSB - VISIBILITY IN STATUTE MILES
WCI - WIND CHILL INDEX
HX  - HEAT INDEX




USA.gov is the U.S. government's official web portal to all federal, state and local government web resources and services.